Weather History for Shannon, Ireland

Change the Weather History Date:

Wednesday, March 7, 2012

  Actual Average Record
Temperature  
Mean Temperature 44 °F -  
Max Temperature 47 °F 52 °F 57 °F (1997)
Min Temperature 42 °F 39 °F 30 °F (1999)
Degree Days  
Heating Degree Days 20    
Moisture  
Dew Point 40 °F    
Average Humidity 80    
Maximum Humidity 100    
Minimum Humidity 61    
Precipitation  
Precipitation 0.03 in 0.09 in - ()
Sea Level Pressure  
Sea Level Pressure 30.05 in    
Wind  
Wind Speed 18 mph ()    
Max Wind Speed 29 mph    
Max Gust Speed 52 mph    
Visibility 6.2 miles    
Events Rain    
Averages and records for this station are not official NWS values.
T = Trace of Precipitation, MM = Missing Value Source: Averaged Metar Reports

Daily Weather History Graph

Daily Weather History Graph

Search for Another Location

Airport:

Trip Planner

Search our weather history database for the weather conditions in past years. The results will help you decide how hot, cold, wet, or windy it might be!

Date:

Astronomy

Mar. 07, 2012 Rise Set
Actual Time 7:07 AM GMT 6:26 PM GMT
Civil Twilight 6:33 AM GMT 7:00 PM GMT
Nautical Twilight 5:54 AM GMT 7:40 PM GMT
Astronomical Twilight 5:13 AM GMT 8:20 PM GMT
Moon 5:48 PM GMT (3/7) 6:13 AM GMT (3/7)
Length of Visible Light 12h 26m
Length of Day
11h 18m
Waxing Gibbous, 99% of the Moon is Illuminated
Mar 7
Waxing Gibbous
Mar 8
Full
Mar 15
Last Quarter
Mar 22
New
Mar 30
First Quarter

Hourly Weather History & Observations

Time (GMT) Temp. Windchill Dew Point Humidity Pressure Visibility Wind Dir Wind Speed Gust Speed Precip Events Conditions
12:00 AM 53 °F - 51 °F 92% 29.90 in 3 mi SW 17.9 mph - - Rain Light Drizzle
12:00 AM 51.8 °F - 51.8 °F 100% 29.89 in 3.1 mi SW 18.4 mph - N/A   Light Drizzle
12:30 AM 51.8 °F - 51.8 °F 100% 29.89 in 6.2 mi SW 16.1 mph - N/A   Mostly Cloudy
1:00 AM 51.8 °F - 50.0 °F 94% 29.86 in 6.2 mi SW 18.4 mph - N/A   Mostly Cloudy
1:30 AM 51.8 °F - 50.0 °F 94% 29.86 in 6.2 mi SW 24.2 mph - N/A   Mostly Cloudy
2:00 AM 51.8 °F - 50.0 °F 94% 29.86 in 6.2 mi SW 19.6 mph - N/A   Mostly Cloudy
2:30 AM 50.0 °F - 48.2 °F 94% 29.86 in 6.2 mi WSW 17.3 mph 28.8 mph N/A   Overcast
3:00 AM 50.0 °F - 46.4 °F 87% 29.86 in 6.2 mi SW 15.0 mph - N/A   Overcast
3:30 AM 50.0 °F - 46.4 °F 87% 29.86 in 6.2 mi WSW 12.7 mph - N/A   Overcast
4:00 AM 50.0 °F - 46.4 °F 87% 29.86 in 5.6 mi WSW 12.7 mph - N/A   Overcast
4:30 AM 48.2 °F - 44.6 °F 87% 29.86 in 5.6 mi West 24.2 mph - N/A   Light Drizzle
5:00 AM 48.2 °F - 44.6 °F 87% 29.86 in 5.6 mi West 13.8 mph - N/A   Light Drizzle
5:30 AM 46.4 °F 40.1 °F 44.6 °F 93% 29.89 in 5.6 mi West 15.0 mph - N/A Rain Light Rain
6:00 AM 46 °F - 42 °F 80% 29.91 in 7 mi West 22.4 mph - - Rain Light Rain
6:00 AM 46.4 °F 38.3 °F 42.8 °F 87% 29.89 in 6.2 mi West 23.0 mph 35.7 mph N/A Rain Light Rain
6:30 AM 44.6 °F 36.6 °F 39.2 °F 81% 29.92 in 6.2 mi West 19.6 mph - N/A   Partly Cloudy
7:00 AM 44.6 °F 35.9 °F 39.2 °F 81% 29.92 in 6.2 mi West 23.0 mph 51.8 mph N/A   Scattered Clouds
7:30 AM 42.8 °F 35.1 °F 35.6 °F 76% 29.95 in 6.2 mi West 16.1 mph - N/A   Scattered Clouds
8:00 AM 44.6 °F 37.2 °F 37.4 °F 76% 29.98 in 6.2 mi West 17.3 mph - N/A Rain Light Rain Showers
8:30 AM 44.6 °F 37.4 °F 37.4 °F 76% 29.98 in 6.2 mi West 16.1 mph - N/A   Partly Cloudy
9:00 AM 42.8 °F 34.5 °F 37.4 °F 81% 29.98 in 6.2 mi West 18.4 mph - N/A   Partly Cloudy
9:30 AM 46.4 °F 38.7 °F 37.4 °F 71% 30.01 in 6.2 mi West 20.7 mph - N/A   Partly Cloudy
10:00 AM 42.8 °F 34.0 °F 39.2 °F 87% 30.01 in 6.2 mi West 20.7 mph - N/A   Mostly Cloudy
10:30 AM 42.8 °F 33.8 °F 37.4 °F 81% 30.04 in 6.2 mi West 21.9 mph - N/A   Mostly Cloudy
11:00 AM 46.4 °F 38.7 °F 39.2 °F 76% 30.04 in 6.2 mi West 20.7 mph - N/A   Scattered Clouds
11:30 AM 44.6 °F 35.3 °F 37.4 °F 76% 30.06 in 6.2 mi West 26.5 mph - N/A   Partly Cloudy
12:00 PM 46 °F - 37 °F 61% 30.09 in 11 mi West 26.8 mph - - Rain Light Rain Showers
12:00 PM 46.4 °F 37.9 °F 37.4 °F 71% 30.06 in 6.2 mi West 25.3 mph - N/A   Scattered Clouds
12:30 PM 44.6 °F 35.7 °F 37.4 °F 76% 30.09 in 6.2 mi WNW 24.2 mph 35.7 mph N/A   Partly Cloudy
1:00 PM 46.4 °F 37.4 °F 35.6 °F 66% 30.09 in 6.2 mi West 28.8 mph 40.3 mph N/A   Partly Cloudy
1:30 PM 46.4 °F 37.9 °F 37.4 °F 71% 30.12 in 6.2 mi West 25.3 mph - N/A   Scattered Clouds
2:00 PM 46.4 °F 38.1 °F 35.6 °F 66% 30.12 in 6.2 mi West 24.2 mph - N/A Rain Light Rain Showers
2:30 PM 46.4 °F 37.7 °F 35.6 °F 66% 30.12 in 6.2 mi West 26.5 mph 38.0 mph N/A   Scattered Clouds
3:00 PM 46.4 °F 37.4 °F 33.8 °F 62% 30.12 in 6.2 mi West 28.8 mph - N/A   Partly Cloudy
3:30 PM 44.6 °F 36.4 °F 37.4 °F 76% 30.12 in 6.2 mi WNW 20.7 mph 42.6 mph N/A   Partly Cloudy
4:00 PM 46.4 °F 37.9 °F 33.8 °F 62% 30.15 in 6.2 mi West 25.3 mph - N/A   Scattered Clouds
4:30 PM 44.6 °F 36.4 °F 35.6 °F 71% 30.15 in 6.2 mi West 20.7 mph - N/A   Mostly Cloudy
5:00 PM 46.4 °F 39.0 °F 37.4 °F 71% 30.15 in 6.2 mi West 19.6 mph - N/A   Scattered Clouds
5:30 PM 44.6 °F 37.2 °F 37.4 °F 76% 30.18 in 5.6 mi West 17.3 mph - N/A Rain Light Rain Showers
6:00 PM 43 °F - 37 °F 72% 30.20 in 12 mi West 15.7 mph - - Rain Light Rain Showers
6:00 PM 42.8 °F 35.1 °F 37.4 °F 81% 30.18 in 6.2 mi West 16.1 mph - N/A   Mostly Cloudy
6:30 PM 42.8 °F 34.3 °F 35.6 °F 76% 30.21 in 6.2 mi West 19.6 mph - N/A   Mostly Cloudy
7:00 PM 42.8 °F 37.5 °F 37.4 °F 81% 30.21 in 6.2 mi West 9.2 mph - N/A   Scattered Clouds
7:30 PM 42.8 °F 35.1 °F 37.4 °F 81% 30.21 in 6.2 mi West 16.1 mph - N/A   Mostly Cloudy
8:00 PM 42.8 °F 34.5 °F 35.6 °F 76% 30.21 in 6.2 mi West 18.4 mph - N/A   Mostly Cloudy
8:30 PM 42.8 °F 34.8 °F 37.4 °F 81% 30.24 in 6.2 mi West 17.3 mph - N/A   Partly Cloudy
9:00 PM 44.6 °F 37.4 °F 39.2 °F 81% 30.24 in 6.2 mi West 16.1 mph - N/A Rain Light Rain Showers
9:30 PM 44.6 °F 37.2 °F 37.4 °F 76% 30.27 in 6.2 mi West 17.3 mph - N/A   Mostly Cloudy
10:00 PM 44.6 °F 38.1 °F 39.2 °F 81% 30.27 in 6.2 mi West 13.8 mph - N/A   Mostly Cloudy
10:30 PM 44.6 °F 37.2 °F 37.4 °F 76% 30.27 in 6.2 mi West 17.3 mph - N/A   Partly Cloudy
11:00 PM 42.8 °F 35.8 °F 37.4 °F 81% 30.27 in 6.2 mi WSW 13.8 mph - N/A   Partly Cloudy
11:30 PM 42.8 °F 35.8 °F 37.4 °F 81% 30.30 in 6.2 mi West 13.8 mph - N/A   Partly Cloudy